Regional Weather Roundup
Issued by NWS Sterling, VA

Home | Current Version | Previous Version | Text Only | Print | Product List | Glossary Off
Versions: 1 2 3 4 5 6 7 8 9 10 11 12 13 14 15 16 17 18 19 20 21 22 23 24 25 26 27 28 29 30 31 32 33 34 35 36 37 38 39 40 41 42 43 44 45 46 47 48 49 50

000
ASUS41 KLWX 011410
RWRLWX

REGIONAL WEATHER ROUNDUP
NATIONAL WEATHER SERVICE BALTIMORE MD/WASHINGTON DC
1000 AM EDT WED JUL 01 2015

Note: "FAIR" indicates few or no clouds below 12,000 feet
with no significant weather and/or obstructions to visibility.
 TC=TEMPERATURE CELSIUS

 * =Non NWS site. Station does not report precipitation (e.g. rain,
    snow, etc.), thunder, or fog.

DCZ001-MDZ009-015-VAZ040>042-051-053>054-011500-
WASHINGTON METRO

CITY           SKY/WX    TMP DP  RH WIND       PRES   REMARKS
WASHINGTON NAT SUNNY     76  69  79 S7        29.86S
DULLES         SUNNY     75  64  68 SW7       29.86F
ANDREWS AFB    SUNNY     76  71  84 W7        29.86S
FT BELVOIR     SUNNY     75  68  77 VRB3      29.86S
QUANTICO       MOSUNNY   75  68  78 S8        29.88R
COLLEGE PARK*  SUNNY     77  68  73 SW5       29.85S
LEESBURG*      SUNNY     77  68  73 W6        29.87F
MANASSAS*      SUNNY     73  70  88 CALM      29.87S
GAITHERSBURG*  SUNNY     73  64  73 W7        29.89F

$$

MDZ006>007-011-014-011500-
BALTIMORE METRO

CITY           SKY/WX    TMP DP  RH WIND       PRES   REMARKS
BWI AIRPORT    SUNNY     75  66  73 W8        29.84F
MD SCIENCE CTR   N/A     78  64  61 MISG      29.86F
MARTIN STATE   SUNNY     75  70  83 S5        29.85F
ANNAPOLIS      SUNNY     75  65  70 W6        29.85S
FORT MEADE*    SUNNY     73  68  83 SW6       29.87F

$$

MDZ012-015-019>023-011500-
MARYLAND EASTERN SHORE

CITY           SKY/WX    TMP DP  RH WIND       PRES   REMARKS
OCEAN CITY     SUNNY     78  68  71 W8        29.87S
SALISBURY      PTSUNNY   77  69  76 SW9       29.87R
BAY BRIDGE AP*   N/A     73  66  78 SW5       29.85F
CAMBRIDGE*     MOSUNNY   77  68  73 SW5       29.86S
EASTON*        MOSUNNY   77  72  83 S7        29.89S

$$

MDZ017>025-011500-
SOUTHERN MARYLAND

CITY           SKY/WX    TMP DP  RH WIND       PRES   REMARKS
PATUXENT RIVER MOSUNNY   76  68  76 CALM      29.87S
ST INIGOES     SUNNY     75  68  78 W6        29.86F
LEONARDTOWN*   SUNNY     73  64  73 SW3       29.88F

$$

MDZ003>005-011500-
NORTH CENTRAL MARYLAND

CITY           SKY/WX    TMP DP  RH WIND       PRES   REMARKS
FREDERICK*     SUNNY     77  68  73 W14       29.87S
HAGERSTOWN APT SUNNY     74  59  59 W13       29.85F
WESTMINSTER*   SUNNY     72  64  78 W12       29.85F

$$

MDZ501>502-011500-
WESTERN MARYLAND

CITY           SKY/WX    TMP DP  RH WIND       PRES   REMARKS
OAKLAND*       CLOUDY    57 N/A N/A SW7       29.95S FOG
CUMBERLAND*    MOSUNNY   73  61  64 W9        29.91S

$$

VAZ025>031-011500-
SHENANDOAH VALLEY

CITY           SKY/WX    TMP DP  RH WIND       PRES   REMARKS
WINCHESTER*    SUNNY     77  63  61 SW8       29.87F
FRONT ROYAL*   FAIR      72  63  73 SW6       29.86F
LURAY*         FAIR      73  63  68 S9        29.89F
NEW MARKET*    FAIR      73  62  67 SW6       29.89S
STAUNTON*      SUNNY     75  62  64 SW9       29.94F
WAYNESBORO*    FAIR      71  60  68 W6        29.94F

$$

WVZ021-048>050-054>055-011500-
EASTERN WEST VIRGINIA PANHANDLE

CITY           SKY/WX    TMP DP  RH WIND       PRES   REMARKS
MARTINSBURG    SUNNY     75  60  59 W15G21    29.86F
PETERSBURG*    PTSUNNY   74  56  52 SW7       29.89F

$$

VAZ036>039-050-011500-
CENTRAL FOOTHILLS

CITY           SKY/WX    TMP DP  RH WIND       PRES   REMARKS
CHARLOTTESVILL SUNNY     75  60  59 VRB5      29.90S
CULPEPER*      SUNNY     74  67  78 SW3       29.88F
ORANGE*        SUNNY     77  66  69 S7        29.90F
GORDONSVILLE*  FAIR      73  64  73 CALM      29.89S
WARRENTON*     FAIR      77  70  79 CALM      29.87S

$$

VAZ055>057-011500-
NORTH AND CENTRAL PIEDMONT

CITY           SKY/WX    TMP DP  RH WIND       PRES   REMARKS
FREDERICKSBRG* SUNNY     77  72  84 S5        29.87S
STAFFORD*      SUNNY     74  67  77 S3        29.92S

$$

NCZ024-NYZ072-PAZ021-071-VAZ022-071-011500-
OTHER REGIONAL OBSERVATIONS

CITY           SKY/WX    TMP DP  RH WIND       PRES   REMARKS
NEW YORK CITY  PTSUNNY   73  65  75 MISG      29.83R
PHILADELPHIA   MOSUNNY   75  65  70 W8        29.83S
PITTSBURGH     CLOUDY    65  60  84 W8        29.89R
ROANOKE        MOSUNNY   73  64  73 W10       29.98S
RICHMOND       PTSUNNY   78  64  61 W10       29.90S
RALEIGH        PTSUNNY   76  69  79 SW3       29.97S

$$

ANZ530>537-011500-
MARINE OBSERVATIONS

STATION/POSITION TIME  TEMP    WIND        PRES
                       AIR SEA DIR/SP/G
                 (UTC) (F)     (DEG/KT/KT) (MB)
THOMAS PT LIGHT  NOT AVBL
BALT KEY BRIDGE  1300   70     220/  9/ 10 1010.5R
COVE POINT       1300   72     260/  7/ 10 1012.3R
LEWISETTA        1300   73 80  270/ 10/ 13 1011.5R
SOLOMONS ISLAND  1300      79                N/A
PINEY POINT      1306          300/  6/  8   N/A

$$



USA.gov is the U.S. government's official web portal to all federal, state and local government web resources and services.